Location: *
(35.1500°N, 76.6700°W)
Time: 00:16:25
(UTC+00:00)

SL-14 R/B - Pass Details

Date: 13 October 2019
Orbit: 518 x 555 km, 82.4° (Epoch: 11 November)

Event Time Altitude Azimuth Distance (km) Brightness Sun altitude
Rises 23:11:42 0° 349° (N) 2,649 6.9 -8.4°
Reaches altitude 10° 23:13:52 10° 346° (NNW) 1,755 6.0 -8.8°
Maximum altitude 23:17:39 63° 266° (W) 583 3.8 -9.6°
Drops below altitude 10° 23:21:26 10° 185° (S) 1,741 6.0 -10.4°
Sets 23:23:34 0° 181° (S) 2,626 6.8 -10.8°
